Location: Unspecified
(0.0000°N, 0.0000°E)
Time: 10:09:43
(UTC+00:00)

NNS O-23 - Visible Passes

Search period start: 05 June 2023 00:00
Search period end: 15 June 2023 00:00
Orbit: 1014 x 1298 km, 90.3° (Epoch: 04 June)

Date Brightness Start Highest point End Pass type
(mag) Time Alt. Az. Time Alt. Az. Time Alt. Az.
05 Jun 11.5 04:42:22 10° ESE 04:44:48 12° E 04:47:16 10° ENE visible
05 Jun 8.3 18:12:08 10° N 18:18:49 85° W 18:25:12 10° S visible
06 Jun 11.2 19:35:50 10° WNW 19:37:37 11° W 19:39:23 10° W visible
07 Jun 9.9 05:27:39 10° SSE 05:34:42 45° E 05:41:57 10° NNE visible
07 Jun 10.6 19:03:51 10° NW 19:08:42 22° W 19:13:28 10° SW visible
08 Jun 10.8 04:59:47 10° SE 05:05:50 26° E 05:12:00 10° NNE visible
08 Jun 9.6 18:33:44 10° NNW 18:39:47 40° W 18:45:40 10° SSW visible
09 Jun 11.2 04:33:05 10° ESE 04:36:59 15° E 04:40:54 10° NE visible
11 Jun 9.6 05:19:35 10° SSE 05:26:54 52° E 05:34:24 10° N visible
11 Jun 10.8 18:56:32 10° NW 19:00:44 18° W 19:04:53 10° SW visible
12 Jun 10.5 04:51:30 10° SE 04:58:02 31° E 05:04:38 10° NNE visible
12 Jun 10.0 18:26:06 10° NNW 18:31:47 33° W 18:37:24 10° SSW visible
13 Jun 11.1 04:24:19 10° SE 04:29:10 18° E 04:34:02 10° NE visible
